This is the latest recevied weather packets stored in our database for station/object SP1BMW-13. If no packets are shown the sender has not sent any weather packets the latest 10 day(s).
| Time | Temp. | Humidity | Pressure | Rain* | Wind** | Luminosity | Snow |
|---|---|---|---|---|---|---|---|
| 1778311805 | 15° C | 50% | 1021.2 hPa | 0 mm | 0.45 m/s, 210° | 408 W/m² | - |
| 1778311746 | 15° C | 51% | 1021.5 hPa | 0 mm | 1.34 m/s, 314° | 405 W/m² | - |
| 1778311686 | 15° C | 52% | 1021.2 hPa | 0 mm | 0.89 m/s, 337° | 402 W/m² | - |
| 1778311625 | 14.44° C | 52% | 1021.4 hPa | 0 mm | 0 m/s | 399 W/m² | - |
| 1778311566 | 14.44° C | 50% | 1021.2 hPa | 0 mm | 0 m/s | 397 W/m² | - |
| 1778311505 | 14.44° C | 51% | 1021.2 hPa | 0 mm | 0 m/s | 394 W/m² | - |
| 1778311445 | 14.44° C | 53% | 1021.4 hPa | 0 mm | 0 m/s | 392 W/m² | - |
| 1778311385 | 14.44° C | 51% | 1021.5 hPa | 0 mm | 0 m/s | 390 W/m² | - |
| 1778311325 | 14.44° C | 51% | 1021.2 hPa | 0 mm | 0.45 m/s, 104° | 387 W/m² | - |
| 1778311265 | 14.44° C | 53% | 1021.3 hPa | 0 mm | 0 m/s | 383 W/m² | - |
| 1778311205 | 14.44° C | 51% | 1021.4 hPa | 0 mm | 0 m/s | 381 W/m² | - |
| 1778311145 | 15° C | 50% | 1021.5 hPa | 0 mm | 0.45 m/s, 31° | 378 W/m² | - |
| 1778311085 | 15° C | 49% | 1021.4 hPa | 0 mm | 0.89 m/s, 9° | 375 W/m² | - |
| 1778311025 | 14.44° C | 49% | 1021.3 hPa | 0 mm | 0 m/s | 372 W/m² | - |
| 1778310966 | 14.44° C | 51% | 1021.3 hPa | 0 mm | 0 m/s | 369 W/m² | - |
| 1778310906 | 13.89° C | 52% | 1021.1 hPa | 0 mm | 0 m/s | 366 W/m² | - |
| 1778310845 | 13.89° C | 50% | 1021.3 hPa | 0 mm | 0 m/s | 363 W/m² | - |
| 1778310785 | 13.33° C | 52% | 1021.2 hPa | 0 mm | 0.45 m/s, 43° | 360 W/m² | - |
| 1778310726 | 13.33° C | 53% | 1021.4 hPa | 0 mm | 0 m/s | 357 W/m² | - |
| 1778310665 | 13.33° C | 54% | 1021.2 hPa | 0 mm | 0 m/s | 354 W/m² | - |
| 1778310605 | 12.78° C | 54% | 1021.2 hPa | 0 mm | 0.89 m/s, 39° | 350 W/m² | - |
| 1778310546 | 12.78° C | 56% | 1021.2 hPa | 0 mm | 0.45 m/s, 281° | 347 W/m² | - |
| 1778310485 | 12.78° C | 56% | 1021.3 hPa | 0 mm | 0 m/s | 344 W/m² | - |
| 1778310425 | 12.78° C | 55% | 1021.3 hPa | 0 mm | 0.45 m/s, 308° | 341 W/m² | - |
| 1778310365 | 12.78° C | 55% | 1021.2 hPa | 0 mm | 0.89 m/s, 352° | 338 W/m² | - |
* Rain latest hour (hover to see other rain measurements)
** Current wind speed in m/s (hover to see current wind gust speed)